TimePST,TemperatureF,Dew PointF,Humidity,Sea Level PressureIn,VisibilityMPH,Wind Direction,Wind SpeedMPH,Gust SpeedMPH,PrecipitationIn,Events,Conditions,WindDirDegrees,DateUTC
12:53 AM,52.0,37.0,57,29.99,10.0,NNW,12.7,-,N/A,,Overcast,330,2013-01-07 08:53:00
1:53 AM,51.1,39.9,66,29.99,10.0,West,6.9,-,0.00,Rain,Light Rain,280,2013-01-07 09:53:00
2:53 AM,50.0,41.0,71,29.99,10.0,Calm,Calm,-,0.00,,Overcast,0,2013-01-07 10:53:00
3:53 AM,52.0,36.0,54,29.99,10.0,Calm,Calm,-,N/A,,Mostly Cloudy,0,2013-01-07 11:53:00
4:53 AM,51.1,34.0,52,29.98,10.0,SSW,3.5,-,N/A,,Clear,210,2013-01-07 12:53:00
5:53 AM,44.1,37.0,76,30.00,10.0,Calm,Calm,-,N/A,,Clear,0,2013-01-07 13:53:00
6:53 AM,46.9,30.9,54,30.01,10.0,SSW,5.8,-,N/A,,Clear,210,2013-01-07 14:53:00
7:53 AM,54.0,26.1,34,30.04,10.0,Calm,Calm,-,N/A,,Clear,0,2013-01-07 15:53:00
8:53 AM,57.0,25.0,29,30.05,10.0,SSW,5.8,-,N/A,,Scattered Clouds,210,2013-01-07 16:53:00
9:53 AM,61.0,21.9,22,30.05,10.0,North,15.0,25.3,N/A,,Clear,350,2013-01-07 17:53:00
11:53 AM,66.0,18.0,16,29.99,10.0,North,27.6,34.5,N/A,,Clear,360,2013-01-07 19:53:00
12:53 PM,68.0,17.1,14,29.96,10.0,North,24.2,31.1,N/A,,Clear,350,2013-01-07 20:53:00
1:53 PM,69.1,15.1,13,29.96,10.0,North,15.0,27.6,N/A,,Clear,360,2013-01-07 21:53:00
3:53 PM,69.1,12.9,11,29.97,10.0,North,10.4,-,N/A,,Clear,10,2013-01-07 23:53:00
4:53 PM,66.0,12.9,13,29.98,10.0,ENE,3.5,-,N/A,,Clear,60,2013-01-08 00:53:00
5:53 PM,66.0,10.9,12,29.99,10.0,North,15.0,-,N/A,,Clear,360,2013-01-08 01:53:00
6:53 PM,60.1,15.1,17,30.00,10.0,Calm,Calm,-,N/A,,Clear,0,2013-01-08 02:53:00
7:53 PM,61.0,15.1,17,30.00,10.0,Calm,Calm,-,N/A,,Clear,0,2013-01-08 03:53:00
8:53 PM,57.0,16.0,20,29.99,10.0,SW,3.5,-,N/A,,Clear,230,2013-01-08 04:53:00
9:53 PM,57.0,15.1,19,30.00,10.0,Calm,Calm,-,N/A,,Clear,0,2013-01-08 05:53:00
10:53 PM,57.9,12.9,17,30.00,10.0,SSW,6.9,-,N/A,,Clear,210,2013-01-08 06:53:00
11:53 PM,53.1,18.0,25,30.01,10.0,NW,4.6,-,N/A,,Clear,310,2013-01-08 07:53:00